Weather History for KRHI - February, 2014

Change the Weather History Date:

Tuesday, February 18, 2014

  Actual Average Record
Temperature  
Mean Temperature 26 °F 17 °F  
Max Temperature 35 °F 27 °F 54 °F (1981)
Min Temperature 17 °F 7 °F -28 °F (2006)
Degree Days  
Heating Degree Days 39 48  
Month to date heating degree days 1110 902  
Since 1 July heating degree days 7048 6163  
Cooling Degree Days 0 0  
Month to date cooling degree days 0 0  
Year to date cooling degree days 0 0  
Moisture  
Dew Point 19 °F    
Average Humidity 78    
Maximum Humidity 100    
Minimum Humidity 56    
Precipitation  
Precipitation T in 0.03 in 0.42 in (1961)
Month to date precipitation 0.55 0.56  
Year to date precipitation 1.93 1.67  
Snow  
Snow T in - 8.00 in (1961)
Month to date snowfall 9.8  
Since 1 July snowfall 64.6  
Snow Depth 25.00 in    
Sea Level Pressure  
Sea Level Pressure 29.66 in    
Wind  
Wind Speed 7 mph (SSW)    
Max Wind Speed 17 mph    
Max Gust Speed 26 mph    
Visibility 6 miles    
Events Rain    
T = Trace of Precipitation, MM = Missing Value Source: NWS Daily Summary

Daily Weather History Graph

Daily Weather History Graph

Search for Another Location

Airport or City:

Trip Planner

Search our weather history database for the weather conditions in past years. The results will help you decide how hot, cold, wet, or windy it might be!

Date:

Astronomy

Feb. 18, 2014 Rise Set
Actual Time 6:55 AM CST 5:29 PM CST
Civil Twilight 6:24 AM CST 5:59 PM CST
Nautical Twilight 5:50 AM CST 6:34 PM CST
Astronomical Twilight 5:15 AM CST 7:08 PM CST
Moon 9:36 PM CST (2/18) 8:14 AM CST (2/18)
Length of Visible Light 11h 34m
Length of Day
10h 34m
Waning Gibbous, 87% of the Moon is Illuminated
Feb 18
Waning Gibbous
Feb 22
Last Quarter
Mar 1
New
Mar 8
First Quarter
Mar 16
Full

Hourly Weather History & Observations

Time (CST) Temp. Windchill Dew Point Humidity Pressure Visibility Wind Dir Wind Speed Gust Speed Precip Events Conditions
12:53 AM 17.1 °F 10.0 °F 15.1 °F 92% 29.79 in 6.0 mi SSW 4.6 mph - N/A   Overcast
1:53 AM 18.0 °F 11.1 °F 15.1 °F 88% 29.80 in 7.0 mi WSW 4.6 mph - N/A   Overcast
2:53 AM 19.0 °F 8.2 °F 16.0 °F 88% 29.80 in 6.0 mi WSW 9.2 mph - N/A   Overcast
3:53 AM 19.0 °F 11.1 °F 17.1 °F 92% 29.79 in 5.0 mi WSW 5.8 mph - N/A   Overcast
4:28 AM 19.0 °F 11.1 °F 17.1 °F 92% 29.70 in 3.0 mi SW 5.8 mph - N/A   Overcast
4:49 AM 19.4 °F 12.8 °F 17.6 °F 93% 29.70 in 2.5 mi SSW 4.6 mph - N/A   Overcast
4:53 AM 19.0 °F 12.3 °F 17.1 °F 92% 29.78 in 3.0 mi SSW 4.6 mph - N/A   Overcast
5:04 AM 19.0 °F 10.0 °F 17.1 °F 92% 29.69 in 2.5 mi SSW 6.9 mph - N/A   Overcast
5:53 AM 18.0 °F 8.7 °F 17.1 °F 96% 29.76 in 2.0 mi South 6.9 mph - N/A   Overcast
6:29 AM 18.0 °F 8.7 °F 17.1 °F 96% 29.67 in 1.8 mi South 6.9 mph - N/A   Overcast
6:46 AM 18.0 °F 8.7 °F 17.1 °F 96% 29.67 in 2.0 mi South 6.9 mph - N/A   Overcast
6:53 AM 18.0 °F 8.7 °F 16.0 °F 92% 29.75 in 2.0 mi South 6.9 mph - N/A   Overcast
7:09 AM 18.0 °F 8.7 °F 16.0 °F 92% 29.66 in 1.5 mi South 6.9 mph - N/A   Overcast
7:53 AM 18.0 °F 9.8 °F 16.0 °F 92% 29.75 in 1.8 mi South 5.8 mph - N/A   Overcast
8:00 AM 18.0 °F 7.7 °F 16.0 °F 92% 29.66 in 2.5 mi South 8.1 mph - N/A   Overcast
8:39 AM 18.0 °F 8.7 °F 16.0 °F 92% 29.65 in 3.0 mi South 6.9 mph - N/A   Overcast
8:53 AM 19.0 °F 13.9 °F 17.1 °F 92% 29.73 in 3.0 mi South 3.5 mph - N/A   Mostly Cloudy
9:04 AM 19.0 °F 12.3 °F 17.1 °F 92% 29.63 in 4.0 mi SSE 4.6 mph - N/A   Scattered Clouds
9:53 AM 21.9 °F 13.4 °F 19.0 °F 89% 29.70 in 7.0 mi Variable 6.9 mph - N/A   Clear
10:53 AM 30.0 °F 19.1 °F 19.9 °F 66% 29.66 in 10.0 mi South 15.0 mph - N/A   Clear
11:53 AM 33.1 °F 23.4 °F 21.9 °F 64% 29.63 in 10.0 mi South 13.8 mph - N/A   Clear
12:53 PM 35.1 °F 29.3 °F 21.9 °F 59% 29.60 in 10.0 mi Variable 6.9 mph 18.4 mph N/A   Clear
1:25 PM 33.1 °F 22.6 °F 24.1 °F 70% 29.53 in 1.8 mi South 16.1 mph - 0.00 in Rain Light Rain
1:39 PM 33.1 °F 23.0 °F 24.1 °F 70% 29.52 in 1.2 mi SSW 15.0 mph 20.7 mph 0.00 in   Partly Cloudy
1:46 PM 33.1 °F 24.4 °F 23.0 °F 66% 29.52 in 3.0 mi SSW 11.5 mph 20.7 mph 0.00 in   Haze
1:53 PM 33.1 °F 25.5 °F 23.0 °F 66% 29.59 in 10.0 mi SSW 9.2 mph - 0.00 in   Clear
2:00 PM 33.1 °F 23.9 °F 23.0 °F 66% 29.53 in 4.0 mi SW 12.7 mph 18.4 mph N/A   Haze
2:53 PM 33.1 °F 26.1 °F 24.1 °F 70% 29.59 in 8.0 mi SW 8.1 mph - N/A   Clear
3:53 PM 33.1 °F 26.9 °F 24.1 °F 70% 29.59 in 8.0 mi SW 6.9 mph - N/A   Clear
4:53 PM 32.0 °F 26.4 °F 24.1 °F 73% 29.58 in 8.0 mi SW 5.8 mph - N/A   Clear
5:53 PM 28.9 °F 21.9 °F 21.9 °F 75% 29.60 in 9.0 mi SW 6.9 mph - N/A   Clear
6:53 PM 21.9 °F 14.5 °F 18.0 °F 85% 29.63 in 8.0 mi WSW 5.8 mph - N/A   Clear
7:53 PM 25.0 °F 17.1 °F 19.9 °F 81% 29.63 in 8.0 mi WSW 6.9 mph - N/A   Partly Cloudy
8:53 PM 23.0 °F 15.8 °F 19.0 °F 85% 29.65 in 8.0 mi West 5.8 mph - N/A   Partly Cloudy
9:53 PM 26.1 °F 16.8 °F 19.9 °F 78% 29.65 in 10.0 mi West 9.2 mph - N/A   Partly Cloudy
10:53 PM 27.0 °F 18.0 °F 21.0 °F 78% 29.65 in 10.0 mi West 9.2 mph - N/A   Clear
11:53 PM 27.0 °F 18.7 °F 21.0 °F 78% 29.65 in 10.0 mi WNW 8.1 mph - N/A   Clear